Simultaneous Nadir Overpasses (SNOs) Predictions

Prediction of SNOs between GOES-14 and NPP Satellite Orbit:

Table of predicted SNOs for the next 14.0 days since TLE Epoch: 7/8/2023
Index Date Time (GOES-14) GOES-14 Lat,Lon NPP Lat,Lon Distance(km) Time Diff (sec)
1 07/08/2023 20:47:36 0.19,-108.57 -0.27,-110.52 223.76 80
2 07/09/2023 20:31:31 0.17,-108.57 0.73,-106.00 293.09 80
3 07/11/2023 08:50:41 -0.21,-108.67 0.38,-111.29 298.60 80
4 07/12/2023 08:34:36 -0.20,-108.66 -0.63,-106.76 217.61 80
5 07/13/2023 20:53:54 0.24,-108.56 -0.52,-112.07 399.53 80
6 07/14/2023 20:37:48 0.22,-108.56 0.43,-107.53 117.05 80
7 07/16/2023 08:56:57 -0.26,-108.67 0.67,-112.82 473.95 80
8 07/17/2023 08:40:53 -0.25,-108.66 -0.34,-108.30 42.21 80
9 07/19/2023 20:41:25 0.27,-108.56 0.16,-109.08 58.84 80
10 07/20/2023 20:25:20 0.25,-108.56 1.18,-104.55 458.00 80
